Location: Gombori
(14.9797°N, 2.9419°W)
Time: 04:12:52
(UTC+00:00)

Meteor 2-13 Rocket - Pass Details

Date: 30 November 2021
Orbit: 936 x 957 km, 82.5° (Epoch: 19 January)

Event Time Altitude Azimuth Distance (km) Brightness Sun altitude
Rises 18:17:01 0° 320° (NW) 3,585 7.7 -9.2°
Reaches altitude 10° 18:21:49 10° 286° (WNW) 2,642 7.7 -10.3°
Maximum altitude 18:23:15 11° 272° (W) 2,578 7.9 -10.6°
Drops below altitude 10° 18:24:42 10° 258° (WSW) 2,643 8.3 -10.9°
Sets 18:29:32 0° 223° (SW) 3,589 8.7 -12.0°
